sat.trackr.live / text

‹ back to catalog

UNIFORM 1

NORAD 39767 · 2014-029B

PAYLOAD ACTIVE UNKNOWN

§ Identity

Operator
Country
JPN
Launch date
2014-05-24
Launch site
TANSC
Launch vehicle
Mass (kg)
RCS (m²)
0.25

External: N2YO · Heavens-Above · Gunter

§ Orbital elements

Epoch: 2026-09-19T14:05:38.555520Z

Period
96.24 min
Inclination
97.8062°
Eccentricity
0.0005120
Mean motion
14.96191978 rev/d
Perigee alt
575.1 km
Apogee alt
582.2 km
Semi-major
6,956.8 km
B*
8.6350e-5
RAAN
359.6697°
Arg perigee
9.6449°
Mean anomaly
350.4870°
Rev number
66,833

§ Raw data

UNIFORM 11 39767U 14029B   26262.58725180  .00000915  00000+0  86350-4 0  99922 39767  97.8062 359.6697 0005120   9.6449 350.4870 14.96191978668339

JSON: /api/v1/satellites/39767 · /tle

For live sub-satellite position, see the globe view (requires WebGL).

§ Visibility from observer

Set your observer location to see the next 7 days of passes ≥ 10°. The values pass through the URL so the page stays shareable.

No JS? Fill the form by hand. The geolocation button needs JavaScript.

§ Radio — SatNOGS DB

ModeDescriptionDownlinkUplink
FM S-band telemetry 2.228 GHz

1 transmitter · refreshed weekly from db.satnogs.org